Weather Roundup
Issued by NWS Chicago, IL

Home | Current Version | Previous Version | Text Only | Print | Product List | Glossary Off
Versions: 1 2 3 4 5 6 7 8 9 10 11 12 13 14 15 16 17 18 19 20 21 22 23 24 25 26 27 28 29 30 31 32 33 34 35 36 37 38 39 40 41 42 43 44 45 46 47 48 49 50

252
NZUS59 KLOT 241409
HRRLOT

CHICAGO AREA WEATHER ROUNDUP
NATIONAL WEATHER SERVICE CHICAGO/ROMEOVILLE IL
900 AM CDT SAT JUN 24 2017

NOTE: "FAIR" INDICATES FEW OR NO CLOUDS BELOW 12,000 FEET WITH NO
SIGNIFICANT WEATHER AND/OR OBSTRUCTIONS TO VISIBILITY.

* THESE STATIONS ARE NOT UNDER NWS QUALITY CONTROL. THEY ALSO MAY NOT
  REPORT WEATHER SUCH AS PRECIPITATION OR FOG.

ILZ005-006-012>014-019>023-241500-
NORTHEAST ILLINOIS

CITY           SKY/WX    TMP DP  RH WIND       PRES   REMARKS
OHARE          MOSUNNY   68  55  63 NW12      29.95R
MIDWAY         MOSUNNY   67  56  67 W10       29.95R
AURORA         MOSUNNY   66  57  72 W16       29.98R
LANSING*       SUNNY     68  54  61 NW7       29.96R
JOLIET*        SUNNY     68  57  68 NW5       29.98R
WAUKEGAN       MOSUNNY   66  55  67 NW6       29.92R
DUPAGE AIRPORT MOSUNNY   66  57  72 W14       29.96R
WHEELING       SUNNY     67  57  70 W10       29.95R
MORRIS*        SUNNY     67  56  68 NW10G16   29.98R
LEWIS AIRPORT* MOSUNNY   67  55  65 NW10G17   29.98R
NORTHERLY ISL    N/A     66  53  63 NW7         N/A
$$

WIZ051-052-058>065-066-070>072-241500-
SOUTHEAST WISCONSIN

CITY           SKY/WX    TMP DP  RH WIND       PRES   REMARKS
MILWAUKEE      MOSUNNY   67  54  63 W14G21    29.91R
KENOSHA*       SUNNY     66  55  67 W12G22    29.93R
RACINE*        SUNNY     66  54  65 W13G20    29.92R
WAUKESHA       MOSUNNY   61  52  72 W15G21    29.94R
WEST BEND      MOSUNNY   63  54  72 W12G23    29.91R
$$

INZ001>003-010>013-019-020-241500-
NORTHWEST INDIANA

CITY           SKY/WX    TMP DP  RH WIND       PRES   REMARKS
GARY*          MOSUNNY   70  54  56 W9        29.95R
MICHIGAN CITY* NOT AVBL
RENSSELAER*    NOT AVBL
VALPARAISO     SUNNY     70  58  65 W8        29.96R
$$

LMZ740>746-241500-
SOUTHERN LAKE MICHIGAN

STATION/POSITION TIME  SKY/WX   TEMP WIND        PRES    VSBY
                                AIR  DIR/SP/G
                 (UTC)          (F)  (DEG/KT/KT) (MB)    (MI)
HARRISON CRIB    1340            66  290/ 11/ 12   N/A
BURNHAM HARBOR   1400            66                N/A
CALUMET HARBOR   1348            68  270/  5/  9 1013.7R
BURNS HARBOR     1340            65  280/ 11/ 12 1014.6R
MICHIGAN CITY    1340            65  270/ 15/ 17   N/A
$$

ABBREVIATIONS USED IN REMARKS
   TC - TEMPERATURE IN CELSIUS
  WCI - WIND CHILL INDEX
   HX - HEAT INDEX
  VSB - VISIBILITY
$$




USA.gov is the U.S. government's official web portal to all federal, state and local government web resources and services.